EW9744 Weather Reports


Display with metric or nautical units.
time (UTC)temp
F
wind
direction
speed
MPH
gust
MPH
rain 1hr
in
rain 24hr
in
rain mn
in
humidity
%
barometer
mb
20260506133030 53 104 2.0 9.0 0.00 0.00 0.00 80 1019.9
20260506131531 53 102 2.0 7.0 0.00 0.00 0.00 81 1019.7
20260506130029 52 232 3.0 9.0 0.00 0.00 0.00 82 1019.6
20260506124533 52 161 3.0 8.0 0.00 0.00 0.00 80 1019.6
20260506123031 53 202 4.0 10.0 0.00 0.00 0.00 79 1019.4
20260506121608 53 192 3.0 12.0 0.00 0.00 0.00 78 1019.3
20260506120030 54 230 3.0 9.0 0.00 0.00 0.00 77 1019.3
20260506114645 55 234 4.0 13.0 0.00 0.00 0.00 75 1019.0
20260506113029 54 246 9.0 21.0 0.00 0.00 0.00 77 1018.8
20260506111528 53 236 4.0 13.0 0.00 0.00 0.00 79 1018.8
20260506110028 55 207 2.0 11.0 0.00 0.00 0.00 77 1018.7
20260506104530 55 251 6.0 16.0 0.00 0.00 0.00 77 1018.5
20260506103108 55 239 9.0 21.0 0.00 0.00 0.00 77 1018.3
20260506101531 54 236 8.0 19.0 0.00 0.00 0.00 79 1018.3
20260506100051 53 254 8.0 14.0 0.00 0.00 0.00 83 1018.3
20260506094539 52 280 5.0 9.0 0.00 0.00 0.00 86 1018.3
20260506093030 50 269 5.0 11.0 0.00 0.00 0.00 88 1018.1
20260506091602 51 269 4.0 6.0 0.00 0.00 0.00 87 1018.2
20260506090107 51 286 2.0 4.0 0.00 0.00 0.00 87 1018.2
20260506083104 52 258 1.0 3.0 0.00 0.00 0.00 86 1017.9
20260506081531 52 298 2.0 6.0 0.00 0.00 0.00 88 1017.7
20260506073032 51 274 1.0 6.0 0.00 0.00 0.00 88 1017.5
20260506071530 51 279 3.0 6.0 0.00 0.00 0.00 87 1017.5
20260506061527 55 135 1.0 6.0 0.00 0.00 0.00 80 1017.2
20260506060134 55 265 4.0 9.0 0.00 0.00 0.00 80 1017.1
20260506044533 56 289 7.0 12.0 0.00 0.00 0.00 78 1016.4
20260506043029 56 286 8.0 17.0 0.00 0.00 0.00 77 1016.2
20260506041530 57 286 6.0 13.0 0.00 0.00 0.00 76 1016.2
20260506040035 57 291 5.0 14.0 0.00 0.00 0.00 75 1016.0
20260506034533 57 290 8.0 17.0 0.00 0.00 0.00 74 1015.7
20260506033030 58 286 4.0 15.0 0.00 0.00 0.00 72 1015.6
20260506030144 60 251 4.0 9.0 0.00 0.00 0.00 69 1015.3
20260506024532 61 271 3.0 7.0 0.00 0.00 0.00 68 1015.2
20260506023028 62 283 3.0 11.0 0.00 0.00 0.00 65 1015.1
20260506021532 64 129 0.0 6.0 0.00 0.00 0.00 62 1015.1
20260506014530 68 343 2.0 5.0 0.00 0.00 0.00 57 1014.9
20260506013033 71 126 2.0 5.0 0.00 0.00 0.00 54 1014.9
20260506011644 72 277 2.0 5.0 0.00 0.00 0.00 51 1014.8
20260506010030 72 264 3.0 8.0 0.00 0.00 0.00 51 1014.8
20260506004533 72 266 6.0 13.0 0.00 0.00 0.00 49 1014.7
20260506003029 74 240 5.0 13.0 0.00 0.00 0.00 47 1014.7
20260506001534 75 279 6.0 12.0 0.00 0.00 0.00 47 1014.7
20260506000032 74 316 3.0 11.0 0.00 0.00 0.00 48 1014.9
20260505233033 71 321 6.0 12.0 0.00 0.00 0.00 52 1015.0
20260505231530 71 319 8.0 13.0 0.00 0.00 0.00 52 1015.1
20260505230031 72 316 9.0 18.0 0.00 0.00 0.00 51 1015.1
20260505223107 72 327 8.0 15.0 0.00 0.00 0.00 52 1015.2
20260505220031 72 319 8.0 17.0 0.00 0.00 0.00 50 1015.5
20260505214533 73 316 7.0 18.0 0.00 0.00 0.00 51 1015.5
20260505213028 73 321 6.0 14.0 0.00 0.00 0.00 51 1015.5
20260505211532 74 312 7.0 14.0 0.00 0.00 0.00 50 1015.6
20260505210035 71 312 6.0 14.0 0.00 0.00 0.00 54 1015.8
20260505204531 70 330 8.0 15.0 0.00 0.00 0.00 55 1015.9
20260505203032 68 338 8.0 16.0 0.00 0.00 0.00 56 1015.9
20260505201529 67 335 10.0 18.0 0.00 0.00 0.00 57 1016.0
20260505200033 68 330 10.0 19.0 0.00 0.00 0.00 57 1016.1
20260505194529 67 329 10.0 20.0 0.00 0.00 0.00 57 1016.1
20260505193030 66 327 9.0 17.0 0.00 0.00 0.00 60 1016.2
20260505191530 65 326 8.0 16.0 0.00 0.00 0.00 61 1016.2
20260505190032 65 324 9.0 16.0 0.00 0.00 0.00 62 1016.3
20260505184529 64 326 9.0 18.0 0.00 0.00 0.00 64 1016.3
20260505183031 63 324 9.0 17.0 0.00 0.00 0.00 65 1016.4
20260505180030 62 331 10.0 19.0 0.00 0.00 0.00 66 1016.3
20260505174530 62 326 10.0 17.0 0.00 0.00 0.00 67 1016.3
20260505173026 61 332 9.0 16.0 0.00 0.00 0.00 68 1016.2
20260505161605 59 302 7.0 14.0 0.00 0.00 0.00 70 1016.1
20260505153031 59 302 5.0 11.0 0.00 0.00 0.00 71 1015.9
20260505151532 58 308 3.0 9.0 0.00 0.00 0.00 72 1015.9